Home   Weather   Costa Mesa   Past weeks

Flag for USA Past Weather in Costa Mesa, California, USA — Yesterday and Last 2 Weeks

Now
84 °F

Passing clouds.


Feels Like: 84 °F
Forecast: 64 / 85 °F
Wind: 9 mph from Southwest

Location: John Wayne Airport-Orange County Airport

Current Time: Sep 29, 2016 at 3:17:31 PM

Latest Report: Sep 29, 2016 at 1:53 PM


Visibility: 10 mi

Pressure: 29.98 "Hg

Humidity: 43%

Dew Point: 59 °F

Location of Costa MesaLocation

Past Weather in Costa Mesa — Graph

°F

Costa Mesa Temperature Yesterday

Maximum temperature yesterday: 89 °F (at 12:53 PM)
Minimum temperature yesterday: 71 °F (at 5:53 AM)
Average temperature yesterday: 79 °F

High & Low Weather Summary for the Past Weeks

 TemperatureHumidityPressure
High105 °F (Sep 26, 11:53 AM)97% (Sep 19, 6:53 AM)30.03 "Hg (Sep 19, 6:53 AM)
Low60 °F (Sep 15, 4:53 AM)8% (Sep 25, 12:53 PM)29.81 "Hg (Sep 27, 5:53 AM)
Average73 °F59%29.92 "Hg
* Reported Sep 14 1:53 PM — Sep 29 1:53 PM, Costa Mesa, Weather by CustomWeather, © 2016

Note: Actual official high and low records may vary slightly from our data, if they occured in-between our weather recording intervals... More about our weather records

Advertising

Costa Mesa Weather History for the Previous 24 Hours

Scroll right to see more
 ConditionsComfort  
Time TempWeatherWind HumidityBarometerVisibility
1:53 PM
Thu, Sep 29
84 °FPassing clouds.9 mph43%29.98 "Hg10 mi
12:53 PM87 °FPassing clouds.10 mph40%30.00 "Hg10 mi
11:53 AM86 °FPassing clouds.8 mph42%30.01 "Hg10 mi
10:53 AM87 °FPassing clouds.5 mph33%30.01 "Hg10 mi
9:53 AM82 °FPassing clouds.5 mph41%30.01 "Hg10 mi
8:53 AM77 °FSunny.No wind50%30.00 "Hg10 mi
7:53 AM73 °FSunny.3 mph62%30.00 "Hg10 mi
6:53 AM70 °FPassing clouds.No wind66%29.99 "Hg10 mi
5:53 AM70 °FClear.No wind64%29.97 "Hg10 mi
4:53 AM71 °FClear.No wind61%29.96 "Hg10 mi
3:53 AM72 °FClear.No wind57%29.95 "Hg10 mi
2:53 AM71 °FClear.3 mph61%29.95 "Hg10 mi
1:53 AM73 °FClear.3 mph57%29.95 "Hg10 mi
12:53 AM75 °FClear.No wind55%29.94 "Hg10 mi
11:53 PM
Wed, Sep 28
75 °FClear.No wind58%29.94 "Hg10 mi
10:53 PM75 °FClear.3 mph54%29.94 "Hg10 mi
9:53 PM77 °FClear.3 mph50%29.93 "Hg10 mi
8:53 PM78 °FClear.No wind46%29.93 "Hg10 mi
7:53 PM79 °FPassing clouds.3 mph41%29.91 "Hg10 mi
6:53 PM80 °FPassing clouds.6 mph39%29.89 "Hg10 mi
5:53 PM85 °FScattered clouds.7 mph31%29.88 "Hg10 mi
4:53 PM85 °FScattered clouds.8 mph34%29.87 "Hg10 mi
3:53 PM86 °FPassing clouds.9 mph31%29.87 "Hg10 mi
Weather by CustomWeather, © 2016

See weather overviewHow to use our weather pages